Year,Month,Day,Hour,Minute,Value (Times are PST for temperature in C)
2016,07,20,00,00,17.70
2016,07,20,00,02,17.70
2016,07,20,00,03,17.70
2016,07,20,00,04,17.70
2016,07,20,00,06,17.70
2016,07,20,00,07,17.60
2016,07,20,00,09,17.60
2016,07,20,00,10,17.60
2016,07,20,00,12,17.60
2016,07,20,00,13,17.50
2016,07,20,00,14,17.50
2016,07,20,00,16,17.50
2016,07,20,00,17,17.50
2016,07,20,00,18,17.50
2016,07,20,00,19,17.40
2016,07,20,00,21,17.40
2016,07,20,00,22,17.40
2016,07,20,00,23,17.40
2016,07,20,00,24,17.40
2016,07,20,00,26,17.40
2016,07,20,00,27,17.40
2016,07,20,00,28,17.40
2016,07,20,00,29,17.40
2016,07,20,00,31,17.40
2016,07,20,00,32,17.40
2016,07,20,00,33,17.40
2016,07,20,00,34,17.40
2016,07,20,00,36,17.40
2016,07,20,00,37,17.40
2016,07,20,00,38,17.40
2016,07,20,00,39,17.40
2016,07,20,00,41,17.40
2016,07,20,00,42,17.40
2016,07,20,00,43,17.30
2016,07,20,00,44,17.30
2016,07,20,00,46,17.20
2016,07,20,00,47,17.10
2016,07,20,00,48,17.10
2016,07,20,00,49,17.00
2016,07,20,00,51,16.90
2016,07,20,00,52,16.90
2016,07,20,00,53,16.80
2016,07,20,00,54,16.80
2016,07,20,00,56,16.70
2016,07,20,00,57,16.70
2016,07,20,00,58,16.70
2016,07,20,00,59,16.70
2016,07,20,01,01,16.70
2016,07,20,01,02,16.70
2016,07,20,01,03,16.60
2016,07,20,01,04,16.60
2016,07,20,01,06,16.40
2016,07,20,01,07,16.30
2016,07,20,01,08,16.20
2016,07,20,01,09,16.10
2016,07,20,01,11,15.80
2016,07,20,01,12,15.80
2016,07,20,01,13,15.80
2016,07,20,01,14,15.80
2016,07,20,01,15,15.70
2016,07,20,01,24,15.80
2016,07,20,01,26,15.70
2016,07,20,01,27,15.70
2016,07,20,01,28,15.70
2016,07,20,01,29,15.60
2016,07,20,01,31,15.50
2016,07,20,01,32,15.50
2016,07,20,01,33,15.50
2016,07,20,01,34,15.50
2016,07,20,01,36,15.40
2016,07,20,01,37,15.40
2016,07,20,01,38,15.40
2016,07,20,01,39,15.40
2016,07,20,01,41,15.40
2016,07,20,01,42,15.30
2016,07,20,01,43,15.30
2016,07,20,01,44,15.30
2016,07,20,01,46,15.20
2016,07,20,01,47,15.00
2016,07,20,01,48,15.00
2016,07,20,01,49,14.90
2016,07,20,01,51,14.80
2016,07,20,01,52,14.80
2016,07,20,01,53,14.80
2016,07,20,01,54,14.80
2016,07,20,01,56,14.90
2016,07,20,01,57,14.90
2016,07,20,01,58,14.90
2016,07,20,01,59,14.90
2016,07,20,02,01,15.00
2016,07,20,02,02,15.00
2016,07,20,02,03,15.00
2016,07,20,02,04,15.10
2016,07,20,02,06,15.10
2016,07,20,02,07,15.10
2016,07,20,02,08,15.10
2016,07,20,02,09,15.10
2016,07,20,02,11,14.90
2016,07,20,02,12,14.90
2016,07,20,02,13,14.80
2016,07,20,02,14,14.80
2016,07,20,02,15,14.80
2016,07,20,02,16,14.80
2016,07,20,02,17,14.70
2016,07,20,02,18,14.70
2016,07,20,02,19,14.70
2016,07,20,02,20,14.70
2016,07,20,02,21,14.70
2016,07,20,02,22,14.70
2016,07,20,02,23,14.70
2016,07,20,02,24,14.70
2016,07,20,02,25,14.70
2016,07,20,02,26,14.70
2016,07,20,02,27,14.70
2016,07,20,02,28,14.80
2016,07,20,02,29,14.80
2016,07,20,02,30,14.80
2016,07,20,02,31,14.80
2016,07,20,02,32,14.80
2016,07,20,02,33,14.80
2016,07,20,02,34,14.80
2016,07,20,02,35,14.80
2016,07,20,02,36,14.80
2016,07,20,02,37,14.80
2016,07,20,02,38,14.80
2016,07,20,02,39,14.80
2016,07,20,02,40,14.80
2016,07,20,02,41,14.80
2016,07,20,02,42,14.80
2016,07,20,02,43,14.80
2016,07,20,02,44,14.80
2016,07,20,02,45,14.80
2016,07,20,02,46,14.80
2016,07,20,02,47,14.80
2016,07,20,02,48,14.80
2016,07,20,02,49,14.80
2016,07,20,02,50,14.70
2016,07,20,02,51,14.70
2016,07,20,02,52,14.70
2016,07,20,02,53,14.70
2016,07,20,02,54,14.70
2016,07,20,02,55,14.70
2016,07,20,02,56,14.60
2016,07,20,02,57,14.60
2016,07,20,02,58,14.60
2016,07,20,02,59,14.60
2016,07,20,03,00,14.60
2016,07,20,03,01,14.50
2016,07,20,03,02,14.50
2016,07,20,03,03,14.40
2016,07,20,03,04,14.40
2016,07,20,03,05,14.30
2016,07,20,03,06,14.30
2016,07,20,03,07,14.30
2016,07,20,03,08,14.30
2016,07,20,03,09,14.20
2016,07,20,03,10,14.20
2016,07,20,03,11,14.20
2016,07,20,03,12,14.20
2016,07,20,03,13,14.20
2016,07,20,03,14,14.20
2016,07,20,03,15,14.20
2016,07,20,03,16,14.20
2016,07,20,03,17,14.20
2016,07,20,03,18,14.20
2016,07,20,03,19,14.10
2016,07,20,03,20,14.10
2016,07,20,03,21,14.10
2016,07,20,03,22,14.10
2016,07,20,03,23,14.20
2016,07,20,03,24,14.20
2016,07,20,03,25,14.20
2016,07,20,03,26,14.20
2016,07,20,03,27,14.20
2016,07,20,03,28,14.20
2016,07,20,03,29,14.20
2016,07,20,03,30,14.30
2016,07,20,03,31,14.30
2016,07,20,03,32,14.30
2016,07,20,03,33,14.40
2016,07,20,03,34,14.40
2016,07,20,03,35,14.40
2016,07,20,03,36,14.40
2016,07,20,03,37,14.40
2016,07,20,03,38,14.40
2016,07,20,03,39,14.30
2016,07,20,03,40,14.30
2016,07,20,03,42,14.40
2016,07,20,03,43,14.40
2016,07,20,03,44,14.40
2016,07,20,03,46,14.40
2016,07,20,03,47,14.40
2016,07,20,03,48,14.40
2016,07,20,03,49,14.40
2016,07,20,03,51,14.40
2016,07,20,03,52,14.40
2016,07,20,03,53,14.40
2016,07,20,03,54,14.40
2016,07,20,03,56,14.40
2016,07,20,03,57,14.50
2016,07,20,03,58,14.50
2016,07,20,03,59,14.50
2016,07,20,04,01,14.60
2016,07,20,04,02,14.60
2016,07,20,04,03,14.60
2016,07,20,04,04,14.60
2016,07,20,04,06,14.70
2016,07,20,04,07,14.70
2016,07,20,04,08,14.70
2016,07,20,04,09,14.80
2016,07,20,04,11,14.80
2016,07,20,04,12,14.80
2016,07,20,04,13,14.80
2016,07,20,04,14,14.80
2016,07,20,04,16,14.80
2016,07,20,04,17,14.80
2016,07,20,04,18,14.80
2016,07,20,04,19,14.80
2016,07,20,04,21,14.90
2016,07,20,04,22,14.90
2016,07,20,04,23,14.90
2016,07,20,04,24,14.90
2016,07,20,04,26,14.90
2016,07,20,04,27,14.90
2016,07,20,04,28,14.90
2016,07,20,04,29,14.90
2016,07,20,04,31,14.90
2016,07,20,04,32,14.90
2016,07,20,04,33,14.90
2016,07,20,04,34,14.90
2016,07,20,04,36,14.90
2016,07,20,04,37,15.00
2016,07,20,04,38,15.00
2016,07,20,04,39,15.00
2016,07,20,04,41,15.00
2016,07,20,04,42,15.00
2016,07,20,04,43,15.10
2016,07,20,04,44,15.10
2016,07,20,04,45,15.10
2016,07,20,04,46,15.10
2016,07,20,04,47,15.20
2016,07,20,04,48,15.20
2016,07,20,04,49,15.20
2016,07,20,04,50,15.30
2016,07,20,04,51,15.30
2016,07,20,04,52,15.30
2016,07,20,04,53,15.30
2016,07,20,04,54,15.30
2016,07,20,04,55,15.30
2016,07,20,04,56,15.30
2016,07,20,04,57,15.30
2016,07,20,04,58,15.30
2016,07,20,04,59,15.30
2016,07,20,05,00,15.30
2016,07,20,05,01,15.40
2016,07,20,05,02,15.40
2016,07,20,05,03,15.40
2016,07,20,05,04,15.40
2016,07,20,05,05,15.40
2016,07,20,05,06,15.40
2016,07,20,05,07,15.40
2016,07,20,05,08,15.40
2016,07,20,05,09,15.40
2016,07,20,05,10,15.40
2016,07,20,05,11,15.40
2016,07,20,05,12,15.40
2016,07,20,05,13,15.40
2016,07,20,05,14,15.40
2016,07,20,05,15,15.40
2016,07,20,05,16,15.40
2016,07,20,05,17,15.40
2016,07,20,05,18,15.40
2016,07,20,05,19,15.40
2016,07,20,05,20,15.40
2016,07,20,05,21,15.40
2016,07,20,05,22,15.40
2016,07,20,05,23,15.40
2016,07,20,05,24,15.30
2016,07,20,05,25,15.30
2016,07,20,05,26,15.30
2016,07,20,05,27,15.30
2016,07,20,05,28,15.30
2016,07,20,05,29,15.30
2016,07,20,05,30,15.30
2016,07,20,05,31,15.30
2016,07,20,05,32,15.30
2016,07,20,05,33,15.20
2016,07,20,05,34,15.20
2016,07,20,05,35,15.20
2016,07,20,05,36,15.20
2016,07,20,05,37,15.20
2016,07,20,05,38,15.20
2016,07,20,05,39,15.20
2016,07,20,05,40,15.10
2016,07,20,05,41,15.10
2016,07,20,05,42,15.10
2016,07,20,05,43,15.10
2016,07,20,05,44,15.00
2016,07,20,05,45,15.00
2016,07,20,05,46,15.00
2016,07,20,05,47,14.90
2016,07,20,05,48,14.80
2016,07,20,05,49,14.80
2016,07,20,05,50,14.70
2016,07,20,05,51,14.60
2016,07,20,05,52,14.60
2016,07,20,05,53,14.60
2016,07,20,05,54,14.50
2016,07,20,05,55,14.50
2016,07,20,05,56,14.50
2016,07,20,05,57,14.50
2016,07,20,05,58,14.40
2016,07,20,05,59,14.40
2016,07,20,06,00,14.40
2016,07,20,06,01,14.40
2016,07,20,06,02,14.40
2016,07,20,06,03,14.40
2016,07,20,06,04,14.40
2016,07,20,06,05,14.40
2016,07,20,06,07,14.50
2016,07,20,06,08,14.50
2016,07,20,06,09,14.60
2016,07,20,06,11,14.60
2016,07,20,06,12,14.60
2016,07,20,06,13,14.70
2016,07,20,06,14,14.70
2016,07,20,06,16,14.80
2016,07,20,06,17,14.80
2016,07,20,06,18,14.80
2016,07,20,06,19,14.80
2016,07,20,06,21,14.80
2016,07,20,06,22,14.80
2016,07,20,06,23,14.90
2016,07,20,06,24,14.90
2016,07,20,06,26,14.90
2016,07,20,06,27,14.90
2016,07,20,06,28,14.90
2016,07,20,06,29,15.00
2016,07,20,06,31,15.00
2016,07,20,06,32,15.00
2016,07,20,06,33,15.00
2016,07,20,06,34,15.00
2016,07,20,06,36,15.10
2016,07,20,06,37,15.10
2016,07,20,06,38,15.10
2016,07,20,06,39,15.10
2016,07,20,06,41,15.10
2016,07,20,06,42,15.10
2016,07,20,06,43,15.10
2016,07,20,06,44,15.20
2016,07,20,06,46,15.20
2016,07,20,06,47,15.20
2016,07,20,06,48,15.20
2016,07,20,06,49,15.20
2016,07,20,06,51,15.20
2016,07,20,06,52,15.20
2016,07,20,06,53,15.20
2016,07,20,06,54,15.30
2016,07,20,06,56,15.30
2016,07,20,06,57,15.30
2016,07,20,06,58,15.30
2016,07,20,06,59,15.30
2016,07,20,07,01,15.30
2016,07,20,07,02,15.30
2016,07,20,07,03,15.40
2016,07,20,07,04,15.40
2016,07,20,07,06,15.40
2016,07,20,07,07,15.40
2016,07,20,07,08,15.30
2016,07,20,07,09,15.30
2016,07,20,07,11,15.30
2016,07,20,07,12,15.30
2016,07,20,07,13,15.30
2016,07,20,07,14,15.30
2016,07,20,07,16,15.30
2016,07,20,07,24,15.10
2016,07,20,07,26,15.00
2016,07,20,07,27,15.00
2016,07,20,07,28,15.00
2016,07,20,07,29,14.90
2016,07,20,07,31,14.90
2016,07,20,07,32,14.80
2016,07,20,07,33,14.80
2016,07,20,07,34,14.80
2016,07,20,07,36,14.80
2016,07,20,07,37,14.80
2016,07,20,07,38,14.80
2016,07,20,07,41,14.80
2016,07,20,07,42,14.80
2016,07,20,07,43,14.80
2016,07,20,07,44,14.80
2016,07,20,07,46,14.80
2016,07,20,07,47,14.80
2016,07,20,07,48,14.80
2016,07,20,07,49,14.80
2016,07,20,07,50,14.70
2016,07,20,07,52,14.60
2016,07,20,07,53,14.50
2016,07,20,07,54,14.40
2016,07,20,08,24,15.10
2016,07,20,08,26,15.20
2016,07,20,08,27,15.30
2016,07,20,08,28,15.30
2016,07,20,08,29,15.30
2016,07,20,08,31,15.50
2016,07,20,08,32,15.60
2016,07,20,08,33,15.70
2016,07,20,08,34,15.80
2016,07,20,08,36,15.90
2016,07,20,08,37,16.10
2016,07,20,08,38,16.10
2016,07,20,08,39,16.10
2016,07,20,08,41,16.30
2016,07,20,08,42,16.30
2016,07,20,08,43,16.20
2016,07,20,08,44,16.20
2016,07,20,08,46,16.20
2016,07,20,08,47,16.20
2016,07,20,08,48,16.20
2016,07,20,08,49,16.20
2016,07,20,08,51,16.30
2016,07,20,08,52,16.30
2016,07,20,08,53,16.30
2016,07,20,08,54,16.30
2016,07,20,08,56,16.40
2016,07,20,08,57,16.40
2016,07,20,08,58,16.40
2016,07,20,08,59,16.60
2016,07,20,09,01,16.70
2016,07,20,09,02,16.70
2016,07,20,09,03,16.70
2016,07,20,09,04,16.70
2016,07,20,09,06,16.60
2016,07,20,09,07,16.60
2016,07,20,09,08,16.70
2016,07,20,09,09,16.70
2016,07,20,09,11,16.70
2016,07,20,09,12,16.70
2016,07,20,09,13,16.70
2016,07,20,09,14,16.70
2016,07,20,09,16,16.80
2016,07,20,09,17,16.80
2016,07,20,09,18,16.80
2016,07,20,09,19,16.90
2016,07,20,09,20,16.90
2016,07,20,09,21,16.90
2016,07,20,09,22,17.00
2016,07,20,09,23,16.90
2016,07,20,09,24,16.90
2016,07,20,09,25,16.80
2016,07,20,09,26,16.70
2016,07,20,09,27,16.40
2016,07,20,09,28,16.40
2016,07,20,09,29,16.30
2016,07,20,09,30,16.30
2016,07,20,09,31,16.30
2016,07,20,09,32,16.30
2016,07,20,09,33,16.30
2016,07,20,09,34,16.30
2016,07,20,09,35,16.30
2016,07,20,09,36,16.30
2016,07,20,09,37,16.40
2016,07,20,09,38,16.40
2016,07,20,09,39,16.40
2016,07,20,09,40,16.60
2016,07,20,09,41,16.70
2016,07,20,09,42,16.70
2016,07,20,09,43,16.80
2016,07,20,09,44,16.80
2016,07,20,09,45,16.90
2016,07,20,09,46,16.90
2016,07,20,09,47,17.00
2016,07,20,09,48,17.00
2016,07,20,09,49,17.10
2016,07,20,09,50,17.10
2016,07,20,09,51,17.10
2016,07,20,09,52,17.20
2016,07,20,09,53,17.20
2016,07,20,09,54,17.30
2016,07,20,09,55,17.30
2016,07,20,09,56,17.30
2016,07,20,09,57,17.30
2016,07,20,09,58,17.30
2016,07,20,09,59,17.30
2016,07,20,10,01,17.40
2016,07,20,10,02,17.40
2016,07,20,10,03,17.40
2016,07,20,10,04,17.40
2016,07,20,10,05,17.40
2016,07,20,10,06,17.40
2016,07,20,10,07,17.40
2016,07,20,10,08,17.40
2016,07,20,10,09,17.40
2016,07,20,10,10,17.30
2016,07,20,10,11,17.30
2016,07,20,10,12,17.30
2016,07,20,10,13,17.20
2016,07,20,10,14,17.20
2016,07,20,10,15,17.20
2016,07,20,10,16,17.20
2016,07,20,10,17,17.20
2016,07,20,10,18,17.20
2016,07,20,10,19,17.20
2016,07,20,10,20,17.20
2016,07,20,10,21,17.20
2016,07,20,10,22,17.20
2016,07,20,10,23,17.10
2016,07,20,10,24,17.10
2016,07,20,10,25,17.00
2016,07,20,10,26,17.00
2016,07,20,10,27,17.00
2016,07,20,10,28,16.90
2016,07,20,10,29,16.90
2016,07,20,10,30,16.80
2016,07,20,10,31,16.70
2016,07,20,10,32,16.70
2016,07,20,10,33,16.70
2016,07,20,10,34,16.60
2016,07,20,10,35,16.60
2016,07,20,10,36,16.60
2016,07,20,10,37,16.60
2016,07,20,10,39,16.70
2016,07,20,10,41,16.70
2016,07,20,10,42,16.70
2016,07,20,10,43,16.70
2016,07,20,10,44,16.70
2016,07,20,10,46,16.70
2016,07,20,10,47,16.70
2016,07,20,10,48,16.70
2016,07,20,10,49,16.70
2016,07,20,10,51,16.70
2016,07,20,10,52,16.80
2016,07,20,10,53,16.80
2016,07,20,10,54,16.80
2016,07,20,10,56,16.70
2016,07,20,10,57,16.70
2016,07,20,10,58,16.70
2016,07,20,10,59,16.70
2016,07,20,11,01,16.80
2016,07,20,11,02,16.90
2016,07,20,11,03,17.00
2016,07,20,11,04,17.00
2016,07,20,11,06,17.10
2016,07,20,11,07,17.10
2016,07,20,11,08,17.20
2016,07,20,11,09,17.20
2016,07,20,11,11,17.10
2016,07,20,11,12,17.10
2016,07,20,11,13,17.10
2016,07,20,11,14,17.20
2016,07,20,11,16,17.30
2016,07,20,11,17,17.30
2016,07,20,11,18,17.40
2016,07,20,11,19,17.50
2016,07,20,11,21,17.70
2016,07,20,11,22,17.80
2016,07,20,11,23,17.90
2016,07,20,11,24,17.90
2016,07,20,11,26,17.90
2016,07,20,11,27,17.90
2016,07,20,11,28,17.80
2016,07,20,11,29,17.70
2016,07,20,11,31,17.50
2016,07,20,11,32,17.50
2016,07,20,11,33,17.40
2016,07,20,11,34,17.30
2016,07,20,11,36,17.30
2016,07,20,11,37,17.30
2016,07,20,11,38,17.30
2016,07,20,11,39,17.20
2016,07,20,11,41,17.20
2016,07,20,11,42,17.10
2016,07,20,11,43,17.10
2016,07,20,11,44,17.00
2016,07,20,11,46,17.10
2016,07,20,11,47,17.10
2016,07,20,11,48,17.20
2016,07,20,11,49,17.20
2016,07,20,11,51,17.30
2016,07,20,11,52,17.30
2016,07,20,11,53,17.30
2016,07,20,11,54,17.30
2016,07,20,11,55,17.30
2016,07,20,11,56,17.40
2016,07,20,11,57,17.50
2016,07,20,11,58,17.50
2016,07,20,11,59,17.60
2016,07,20,12,00,17.60
2016,07,20,12,01,17.70
2016,07,20,12,02,17.70
2016,07,20,12,03,17.80
2016,07,20,12,04,17.90
2016,07,20,12,06,18.10
2016,07,20,12,07,18.10
2016,07,20,12,08,18.10
2016,07,20,12,09,18.20
2016,07,20,12,10,18.20
2016,07,20,12,11,18.30
2016,07,20,12,12,18.40
2016,07,20,12,13,18.60
2016,07,20,12,14,18.60
2016,07,20,12,15,18.70
2016,07,20,12,16,18.60
2016,07,20,12,17,18.40
2016,07,20,12,18,18.30
2016,07,20,12,19,18.20
2016,07,20,12,20,18.20
2016,07,20,12,21,18.10
2016,07,20,12,22,17.90
2016,07,20,12,23,17.80
2016,07,20,12,24,17.70
2016,07,20,12,25,17.70
2016,07,20,12,26,17.60
2016,07,20,12,27,17.60
2016,07,20,12,28,17.50
2016,07,20,12,29,17.50
2016,07,20,12,30,17.40
2016,07,20,12,31,17.30
2016,07,20,12,32,17.30
2016,07,20,12,33,17.20
2016,07,20,12,34,17.20
2016,07,20,12,35,17.20
2016,07,20,12,36,17.20
2016,07,20,12,37,17.30
2016,07,20,12,38,17.30
2016,07,20,12,39,17.40
2016,07,20,12,40,17.60
2016,07,20,12,41,17.70
2016,07,20,12,42,17.80
2016,07,20,12,43,17.90
2016,07,20,12,44,17.90
2016,07,20,12,45,18.10
2016,07,20,12,46,18.20
2016,07,20,12,47,18.20
2016,07,20,12,48,18.30
2016,07,20,12,49,18.40
2016,07,20,12,50,18.50
2016,07,20,12,51,18.60
2016,07,20,12,52,18.80
2016,07,20,12,53,18.90
2016,07,20,12,54,18.90
2016,07,20,12,55,19.10
2016,07,20,12,56,19.10
2016,07,20,12,57,19.20
2016,07,20,12,58,19.30
2016,07,20,12,59,19.40
2016,07,20,13,01,19.60
2016,07,20,13,02,19.70
2016,07,20,13,03,19.60
2016,07,20,13,04,19.40
2016,07,20,13,05,19.30
2016,07,20,13,06,19.10
2016,07,20,13,07,18.90
2016,07,20,13,09,18.40
2016,07,20,13,10,18.30
2016,07,20,13,11,18.20
2016,07,20,13,12,18.10
2016,07,20,13,13,17.90
2016,07,20,13,14,17.90
2016,07,20,13,15,17.80
2016,07,20,13,16,17.70
2016,07,20,13,17,17.70
2016,07,20,13,18,17.60
2016,07,20,13,19,17.50
2016,07,20,13,20,17.40
2016,07,20,13,21,17.30
2016,07,20,13,23,17.30
2016,07,20,13,24,17.30
2016,07,20,13,26,17.30
2016,07,20,13,27,17.30
2016,07,20,13,28,17.30
2016,07,20,13,29,17.30
2016,07,20,13,31,17.10
2016,07,20,13,32,17.00
2016,07,20,13,33,17.00
2016,07,20,13,34,17.00
2016,07,20,13,36,17.00
2016,07,20,13,37,17.00
2016,07,20,13,38,17.10
2016,07,20,13,39,17.10
2016,07,20,13,41,17.20
2016,07,20,13,42,17.20
2016,07,20,13,43,17.30
2016,07,20,13,44,17.30
2016,07,20,13,46,17.30
2016,07,20,13,47,17.40
2016,07,20,13,49,17.40
2016,07,20,13,51,17.40
2016,07,20,13,52,17.40
2016,07,20,13,53,17.40
2016,07,20,13,54,17.40
2016,07,20,13,56,17.40
2016,07,20,13,57,17.40
2016,07,20,13,58,17.40
2016,07,20,13,59,17.40
2016,07,20,14,01,17.60
2016,07,20,14,02,17.70
2016,07,20,14,03,17.70
2016,07,20,14,04,17.80
2016,07,20,14,06,17.90
2016,07,20,14,07,17.90
2016,07,20,14,08,18.10
2016,07,20,14,09,18.10
2016,07,20,14,11,18.20
2016,07,20,14,12,18.30
2016,07,20,14,13,18.40
2016,07,20,14,14,18.50
2016,07,20,14,16,18.80
2016,07,20,14,17,18.90
2016,07,20,14,18,18.90
2016,07,20,14,19,19.10
2016,07,20,14,21,19.20
2016,07,20,14,22,19.30
2016,07,20,14,24,19.50
2016,07,20,14,26,19.80
2016,07,20,14,27,19.80
2016,07,20,14,28,19.90
2016,07,20,14,29,19.90
2016,07,20,14,31,19.90
2016,07,20,14,32,19.90
2016,07,20,14,33,19.90
2016,07,20,14,34,19.80
2016,07,20,14,36,19.80
2016,07,20,14,37,19.70
2016,07,20,14,38,19.70
2016,07,20,14,39,19.70
2016,07,20,14,41,19.60
2016,07,20,14,42,19.50
2016,07,20,14,43,19.50
2016,07,20,14,44,19.50
2016,07,20,14,46,19.50
2016,07,20,14,47,19.50
2016,07,20,14,48,19.60
2016,07,20,14,49,19.60
2016,07,20,14,51,19.70
2016,07,20,14,52,19.70
2016,07,20,14,53,19.70
2016,07,20,14,54,19.70
2016,07,20,14,56,19.70
2016,07,20,14,57,19.70
2016,07,20,14,58,19.70
2016,07,20,14,59,19.70
2016,07,20,15,01,19.70
2016,07,20,15,02,19.70
2016,07,20,15,03,19.60
2016,07,20,15,04,19.50
2016,07,20,15,06,19.30
2016,07,20,15,07,19.10
2016,07,20,15,08,19.10
2016,07,20,15,09,18.90
2016,07,20,15,11,18.70
2016,07,20,15,12,18.60
2016,07,20,15,13,18.50
2016,07,20,15,14,18.40
2016,07,20,15,15,18.40
2016,07,20,15,16,18.30
2016,07,20,15,17,18.30
2016,07,20,15,18,18.30
2016,07,20,15,19,18.30
2016,07,20,15,20,18.30
2016,07,20,15,21,18.30
2016,07,20,15,22,18.30
2016,07,20,15,23,18.30
2016,07,20,15,24,18.30
2016,07,20,15,25,18.30
2016,07,20,15,26,18.30
2016,07,20,15,27,18.30
2016,07,20,15,28,18.20
2016,07,20,15,29,18.20
2016,07,20,15,30,18.20
2016,07,20,15,31,18.20
2016,07,20,15,32,18.20
2016,07,20,15,33,18.20
2016,07,20,15,34,18.20
2016,07,20,15,35,18.20
2016,07,20,15,36,18.10
2016,07,20,15,37,18.10
2016,07,20,15,38,18.10
2016,07,20,15,39,17.90
2016,07,20,15,40,17.90
2016,07,20,15,41,17.90
2016,07,20,15,42,17.90
2016,07,20,15,43,17.90
2016,07,20,15,44,17.90
2016,07,20,15,45,17.90
2016,07,20,15,46,17.90
2016,07,20,15,47,17.90
2016,07,20,15,48,17.80
2016,07,20,15,49,17.80
2016,07,20,15,50,17.90
2016,07,20,15,51,17.90
2016,07,20,15,52,17.90
2016,07,20,15,53,17.90
2016,07,20,15,54,17.90
2016,07,20,15,55,17.90
2016,07,20,15,56,17.90
2016,07,20,15,57,17.90
2016,07,20,15,58,17.90
2016,07,20,15,59,18.10
2016,07,20,16,00,18.10
2016,07,20,16,01,18.10
2016,07,20,16,02,18.20
2016,07,20,16,03,18.20
2016,07,20,16,04,18.20
2016,07,20,16,05,18.30
2016,07,20,16,06,18.40
2016,07,20,16,07,18.50
2016,07,20,16,08,18.50
2016,07,20,16,09,18.60
2016,07,20,16,10,18.70
2016,07,20,16,11,18.80
2016,07,20,16,12,18.90
2016,07,20,16,13,18.90
2016,07,20,16,14,18.90
2016,07,20,16,15,18.90
2016,07,20,16,16,19.10
2016,07,20,16,17,19.10
2016,07,20,16,18,19.10
2016,07,20,16,19,19.10
2016,07,20,16,20,19.10
2016,07,20,16,21,19.10
2016,07,20,16,22,19.20
2016,07,20,16,23,19.40
2016,07,20,16,24,19.50
2016,07,20,16,25,19.60
2016,07,20,16,26,19.80
2016,07,20,16,27,19.90
2016,07,20,16,28,20.10
2016,07,20,16,29,20.20
2016,07,20,16,30,20.30
2016,07,20,16,31,20.50
2016,07,20,16,32,20.70
2016,07,20,16,33,20.80
2016,07,20,16,34,20.90
2016,07,20,16,35,20.90
2016,07,20,16,36,21.00
2016,07,20,16,37,21.00
2016,07,20,16,38,21.00
2016,07,20,16,39,21.00
2016,07,20,16,40,21.00
2016,07,20,16,41,21.10
2016,07,20,16,43,21.20
2016,07,20,16,44,21.30
2016,07,20,16,46,21.30
2016,07,20,16,47,21.40
2016,07,20,16,48,21.60
2016,07,20,16,49,21.60
2016,07,20,16,51,21.80
2016,07,20,16,52,22.00
2016,07,20,16,53,22.10
2016,07,20,16,54,22.20
2016,07,20,16,56,22.50
2016,07,20,16,57,22.60
2016,07,20,16,58,22.60
2016,07,20,16,59,22.70
2016,07,20,17,01,22.80
2016,07,20,17,02,22.80
2016,07,20,17,03,22.80
2016,07,20,17,04,22.80
2016,07,20,17,06,22.70
2016,07,20,17,07,22.70
2016,07,20,17,08,22.60
2016,07,20,17,09,22.60
2016,07,20,17,11,22.50
2016,07,20,17,12,22.40
2016,07,20,17,13,22.40
2016,07,20,17,14,22.30
2016,07,20,17,16,22.40
2016,07,20,17,17,22.40
2016,07,20,17,18,22.40
2016,07,20,17,19,22.50
2016,07,20,17,21,22.70
2016,07,20,17,22,22.70
2016,07,20,17,23,22.80
2016,07,20,17,24,22.80
2016,07,20,17,26,22.90
2016,07,20,17,27,22.90
2016,07,20,17,28,22.90
2016,07,20,17,29,22.90
2016,07,20,17,31,22.90
2016,07,20,17,32,22.90
2016,07,20,17,33,22.90
2016,07,20,17,34,22.90
2016,07,20,17,36,22.90
2016,07,20,17,37,22.90
2016,07,20,17,38,22.90
2016,07,20,17,39,23.10
2016,07,20,17,41,23.20
2016,07,20,17,42,23.20
2016,07,20,17,43,23.30
2016,07,20,17,44,23.30
2016,07,20,17,46,23.30
2016,07,20,17,47,23.30
2016,07,20,17,48,23.30
2016,07,20,17,49,23.40
2016,07,20,17,51,23.60
2016,07,20,17,52,23.60
2016,07,20,17,53,23.40
2016,07,20,17,54,23.40
2016,07,20,17,55,23.40
2016,07,20,17,56,23.40
2016,07,20,17,57,23.40
2016,07,20,17,58,23.40
2016,07,20,17,59,23.40
2016,07,20,18,00,23.40
2016,07,20,18,01,23.40
2016,07,20,18,02,23.40
2016,07,20,18,03,23.40
2016,07,20,18,04,23.30
2016,07,20,18,06,23.30
2016,07,20,18,07,23.30
2016,07,20,18,08,23.40
2016,07,20,18,09,23.40
2016,07,20,18,10,23.30
2016,07,20,18,11,23.30
2016,07,20,18,12,23.30
2016,07,20,18,13,23.30
2016,07,20,18,14,23.30
2016,07,20,18,15,23.30
2016,07,20,18,16,23.20
2016,07,20,18,17,23.20
2016,07,20,18,18,23.20
2016,07,20,18,19,23.10
2016,07,20,18,20,22.90
2016,07,20,18,21,22.90
2016,07,20,18,22,22.90
2016,07,20,18,23,22.90
2016,07,20,18,24,22.90
2016,07,20,18,25,22.90
2016,07,20,18,26,22.90
2016,07,20,18,27,22.90
2016,07,20,18,28,22.90
2016,07,20,18,29,22.90
2016,07,20,18,30,22.90
2016,07,20,18,31,22.80
2016,07,20,18,32,22.80
2016,07,20,18,33,22.80
2016,07,20,18,34,22.80
2016,07,20,18,35,22.80
2016,07,20,18,36,22.80
2016,07,20,18,37,22.70
2016,07,20,18,38,22.70
2016,07,20,18,39,22.60
2016,07,20,18,40,22.60
2016,07,20,18,41,22.50
2016,07,20,18,42,22.40
2016,07,20,18,43,22.40
2016,07,20,18,44,22.40
2016,07,20,18,45,22.40
2016,07,20,18,46,22.40
2016,07,20,18,47,22.40
2016,07,20,18,49,22.40
2016,07,20,18,50,22.40
2016,07,20,18,51,22.40
2016,07,20,18,52,22.40
2016,07,20,18,53,22.40
2016,07,20,19,24,22.00
2016,07,20,19,26,21.90
2016,07,20,19,27,21.80
2016,07,20,19,28,21.70
2016,07,20,19,29,21.70
2016,07,20,19,31,21.60
2016,07,20,19,32,21.60
2016,07,20,19,33,21.60
2016,07,20,19,34,21.40
2016,07,20,19,36,21.40
2016,07,20,19,37,21.30
2016,07,20,19,38,21.30
2016,07,20,19,39,21.30
2016,07,20,19,41,21.40
2016,07,20,19,42,21.40
2016,07,20,19,43,21.40
2016,07,20,19,44,21.40
2016,07,20,19,46,21.40
2016,07,20,19,47,21.30
2016,07,20,19,48,21.30
2016,07,20,19,49,21.30
2016,07,20,19,51,21.30
2016,07,20,19,52,21.30
2016,07,20,19,53,21.30
2016,07,20,19,54,21.20
2016,07,20,19,56,21.20
2016,07,20,19,57,21.10
2016,07,20,19,58,21.10
2016,07,20,19,59,21.00
2016,07,20,20,01,20.80
2016,07,20,20,02,20.70
2016,07,20,20,03,20.60
2016,07,20,20,04,20.50
2016,07,20,20,06,20.30
2016,07,20,20,07,20.20
2016,07,20,20,08,20.20
2016,07,20,20,09,19.90
2016,07,20,20,11,19.60
2016,07,20,20,12,19.50
2016,07,20,20,13,19.40
2016,07,20,20,14,19.20
2016,07,20,20,15,19.10
2016,07,20,20,16,19.10
2016,07,20,20,17,18.90
2016,07,20,20,18,18.90
2016,07,20,20,19,18.80
2016,07,20,20,20,18.60
2016,07,20,20,21,18.50
2016,07,20,20,22,18.40
2016,07,20,20,23,18.30
2016,07,20,20,24,18.20
2016,07,20,20,25,18.20
2016,07,20,20,26,18.10
2016,07,20,20,28,17.90
2016,07,20,20,29,17.90
2016,07,20,20,30,17.80
2016,07,20,20,31,17.70
2016,07,20,20,32,17.70
2016,07,20,20,33,17.60
2016,07,20,20,34,17.50
2016,07,20,20,35,17.40
2016,07,20,20,36,17.30
2016,07,20,20,37,17.30
2016,07,20,20,38,17.20
2016,07,20,20,39,17.10
2016,07,20,20,40,17.00
2016,07,20,21,24,17.20
2016,07,20,21,26,17.20
2016,07,20,21,27,17.10
2016,07,20,21,28,17.10
2016,07,20,21,29,17.10
2016,07,20,21,31,17.00
2016,07,20,21,32,17.00
2016,07,20,21,33,17.00
2016,07,20,21,34,17.00
2016,07,20,21,36,17.00
2016,07,20,21,37,16.90
2016,07,20,21,38,16.90
2016,07,20,21,39,16.80
2016,07,20,21,41,16.70
2016,07,20,21,42,16.70
2016,07,20,21,43,16.60
2016,07,20,21,44,16.60
2016,07,20,21,46,16.40